Regional Weather Roundup
Issued by NWS

Home | Current Version | Previous Version | Graphics & Text | Print | Product List | Glossary On
Versions: 1 2 3 4 5 6 7 8 9 10 11 12 13 14 15 16 17 18 19 20 21 22 23 24 25 26 27 28 29 30 31 32 33 34 35 36 37 38 39 40 41 42 43 44 45 46 47 48 49 50
000
ASUS45 KBOI 280210
RWRID

IDAHO REGIONAL WEATHER ROUNDUP
NATIONAL WEATHER SERVICE BOISE ID
800 PM MDT WED MAY 27 2015

NOTE: "FAIR" INDICATES FEW OR NO CLOUDS BELOW 12000 FEET
WITH NO SIGNIFICANT WEATHER AND/OR OBSTRUCTIONS TO VISIBILITY

IDZ012-014-280300-
SOUTHWEST IDAHO


CITY           SKY/WX    TMP DP  RH WIND       PRES   REMARKS
BOISE          MOSUNNY   71  39  31 NW12      29.96R
CALDWELL       MOSUNNY   70  43  37 N9        29.96S
MOUNTAIN HOME  MOSUNNY   68  45  43 NW15      29.95S
$$

IDZ016-017-280300-
SOUTHCENTRAL IDAHO


CITY           SKY/WX    TMP DP  RH WIND       PRES   REMARKS
BURLEY         CLOUDY    62  46  55 W10       30.03R
JEROME         CLOUDY    56  48  74 SE10      30.03R
TWIN FALLS     LGT RAIN  55  49  80 CALM      30.02R
$$

IDZ019>023-280300-
SOUTHEAST IDAHO


CITY           SKY/WX    TMP DP  RH WIND       PRES   REMARKS
IDAHO FALLS    CLOUDY    60  43  53 S9        30.01R
POCATELLO      MOCLDY    59  48  67 E10       30.02R
REXBURG        MOCLDY    57  44  62 SW5       30.02R
$$

IDZ006-010-011-018-031-032-280300-
CENTRAL IDAHO MOUNTAINS


CITY           SKY/WX    TMP DP  RH WIND       PRES   REMARKS
MCCALL         MOSUNNY   58  38  47 NW8       30.02S
HAILEY         PTSUNNY   59  43  55 NW6       30.01R
STANLEY          N/A     50  37  61 NW3       30.10F
SALMON         MOSUNNY   57  43  58 NW7       30.00S
CHALLIS        MOSUNNY   58  39  49 NW6       30.02F
$$

IDZ002-004-006-007-026-280300-
NORTHERN IDAHO


CITY           SKY/WX    TMP DP  RH WIND       PRES   REMARKS
LEWISTON       PTSUNNY   70  49  47 E12       29.95S
LOWELL           N/A     60  55  83 CALM      29.99R
COEUR D`ALENE  PTSUNNY   72  45  37 CALM      29.95S
MULLAN PASS    PTSUNNY   49  42  77 CALM      30.08S
$$



USA.gov is the U.S. government's official web portal to all federal, state and local government web resources and services.